STARLINK-32276

Last updated on Tue Oct 01 2024 00:02:04 GMT+0000 (Coordinated Universal Time)

1 60944U 24155W 24273.91667824 .00021915 00000+0 40110-3 0 9997 2 60944 53.1589 55.0356 0001052 83.6931 59.9570 15.49300011 5844
UTC large
Height (km)
Speed (km/s)
/
Latitude / Longitude
Inclination (degrees)
Orbital Period (minutes)
Azimuth
Elevation
Range (km)
Doppler Factor

Next 0 passes for location: London (51.5072 / 0.1276)

Sorry there are no passes over London.